DW7002 Weather Reports


time (UTC)temp
C
wind
direction
speed
KPH
gust
KPH
rain 1hr
cm
rain 24hr
cm
rain mn
cm
humidity
%
barometer
mb
20260503022130 7 202 0.0 3.2 0.00 0.00 0.00 84 1016.1
20260503021123 7 205 1.6 3.2 0.00 0.00 0.00 83 1016.1
20260503020121 7 205 0.0 0.0 0.00 0.00 0.00 83 1015.9
20260503015132 7 205 1.6 3.2 0.00 0.00 0.00 82 1015.8
20260503014125 8 195 0.0 1.6 0.00 0.00 0.00 81 1015.6
20260503013118 8 195 0.0 0.0 0.00 0.00 0.00 80 1015.2
20260503012135 8 195 0.0 0.0 0.00 0.00 0.00 79 1015.1
20260503011127 9 195 0.0 0.0 0.00 0.00 0.00 78 1014.9
20260503010119 9 195 0.0 0.0 0.00 0.00 0.00 77 1014.6
20260503005133 10 195 0.0 1.6 0.00 0.00 0.00 77 1014.4
20260503004125 10 195 0.0 0.0 0.00 0.00 0.00 77 1014.4
20260503003117 10 195 0.0 0.0 0.00 0.00 0.00 75 1014.5
20260503002130 10 195 0.0 0.0 0.00 0.00 0.00 73 1014.4
20260503001127 11 195 1.6 3.2 0.00 0.00 0.00 71 1014.3
20260503000121 11 195 0.0 0.0 0.00 0.00 0.00 69 1014.1
20260502235131 12 195 0.0 0.0 0.00 0.00 0.00 67 1014.1
20260502234127 12 195 0.0 0.0 0.00 0.00 0.00 66 1014.0
20260502233121 12 195 0.0 0.0 0.00 0.00 0.00 62 1013.9
20260502232155 13 195 0.0 0.0 0.00 0.00 0.00 61 1013.6
20260502231126 13 195 0.0 0.0 0.00 0.00 0.00 56 1013.5
20260502230122 13 195 0.0 3.2 0.00 0.00 0.00 56 1013.5
20260502225153 13 195 1.6 3.2 0.00 0.00 0.00 53 1013.4
20260502224123 13 198 0.0 3.2 0.00 0.00 0.00 55 1013.4
20260502223136 13 126 1.6 3.2 0.00 0.00 0.00 55 1013.4
20260502222132 13 126 3.2 4.8 0.00 0.00 0.00 56 1013.1
20260502221124 13 114 1.6 3.2 0.00 0.00 0.00 56 1013.1
20260502220116 13 196 0.0 3.2 0.00 0.00 0.00 55 1013.1
20260502215126 13 196 0.0 1.6 0.00 0.00 0.00 55 1013.1
20260502214124 13 196 1.6 3.2 0.00 0.00 0.00 55 1013.0
20260502213117 13 196 1.6 3.2 0.00 0.00 0.00 54 1013.0
20260502212150 13 197 1.6 8.0 0.00 0.00 0.00 54 1012.9
20260502211121 13 134 1.6 9.7 0.00 0.00 0.00 52 1012.9
20260502210118 13 137 1.6 3.2 0.00 0.00 0.00 53 1012.9
20260502205128 13 138 1.6 3.2 0.00 0.00 0.00 53 1013.0
20260502204122 13 138 1.6 3.2 0.00 0.00 0.00 53 1013.0
20260502203120 13 128 1.6 8.0 0.00 0.00 0.00 54 1013.0
20260502202132 13 164 0.0 3.2 0.00 0.00 0.00 58 1013.1
20260502201125 12 166 1.6 3.2 0.00 0.00 0.00 57 1013.3
20260502200136 12 40 1.6 3.2 0.00 0.00 0.00 56 1013.5
20260502195130 12 40 0.0 3.2 0.00 0.00 0.00 59 1013.7
20260502194143 12 40 1.6 3.2 0.00 0.00 0.00 56 1013.8
20260502193134 12 40 1.6 3.2 0.00 0.00 0.00 57 1013.9
20260502192126 12 38 1.6 3.2 0.00 0.00 0.00 58 1014.0
20260502191143 12 30 1.6 3.2 0.00 0.00 0.00 58 1014.1
20260502190135 12 27 0.0 3.2 0.00 0.00 0.00 59 1014.1
20260502185123 12 36 1.6 3.2 0.00 0.00 0.00 59 1013.9
20260502184115 12 36 1.6 3.2 0.00 0.00 0.00 59 1014.0
20260502183132 12 48 0.0 3.2 0.00 0.00 0.00 58 1014.0
20260502182146 12 48 1.6 6.4 0.00 0.00 0.00 55 1014.1
20260502181118 12 36 1.6 3.2 0.00 0.00 0.00 57 1014.3
20260502180150 12 33 1.6 3.2 0.00 0.00 0.00 58 1014.2
20260502170130 12 24 3.2 6.4 0.00 0.00 0.00 57 1014.5
20260502164153 12 49 3.2 8.0 0.00 0.00 0.00 57 1014.9
20260502163129 12 42 1.6 4.8 0.00 0.00 0.00 59 1014.9
20260502162122 12 42 1.6 3.2 0.00 0.00 0.00 59 1015.2
20260502161115 11 43 1.6 3.2 0.00 0.00 0.00 60 1015.3
20260502160130 11 43 1.6 3.2 0.00 0.00 0.00 61 1015.8
20260502152140 11 43 1.6 6.4 0.00 0.00 0.00 60 1015.7
20260502151131 12 36 3.2 4.8 0.00 0.00 0.00 60 1015.6
20260502150124 12 53 1.6 6.4 0.00 0.00 0.00 65 1015.2
20260502140120 11 47 1.6 6.4 0.00 0.00 0.00 73 1015.3
20260502130118 11 79 0.0 0.0 0.00 0.00 0.00 79 1015.3
20260502123122 11 128 0.0 0.0 0.00 0.00 0.00 81 1014.6
20260502122134 11 156 0.0 0.0 0.00 0.00 0.00 81 1014.7
20260502121132 11 156 0.0 0.0 0.00 0.00 0.00 82 1014.8
20260502120124 11 157 0.0 0.0 0.00 0.00 0.00 83 1014.8
20260502115134 11 112 0.0 0.0 0.00 0.00 0.00 84 1014.5
20260502114126 11 115 0.0 0.0 0.00 0.00 0.00 84 1014.5
20260502113123 11 115 0.0 0.0 0.00 0.00 0.00 85 1014.5
20260502112136 11 115 0.0 0.0 0.00 0.00 0.00 84 1014.2
20260502111130 11 115 0.0 0.0 0.00 0.00 0.00 84 1014.3
20260502110124 11 115 0.0 0.0 0.00 0.00 0.00 84 1014.2
20260502105155 11 115 0.0 0.0 0.00 0.00 0.00 84 1014.0
20260502104126 11 115 0.0 0.0 0.00 0.00 0.00 85 1014.2
20260502103117 11 169 0.0 0.0 0.00 0.00 0.00 86 1014.2
20260502102133 11 169 0.0 0.0 0.00 0.00 0.00 88 1014.2
20260502101125 11 169 0.0 0.0 0.00 0.00 0.00 89 1014.5
20260502100117 11 169 0.0 0.0 0.00 0.00 0.00 90 1014.5
20260502091145 11 169 0.0 0.0 0.00 0.00 0.00 89 1014.7
20260502090119 11 169 0.0 0.0 0.00 0.00 0.00 89 1014.3
20260502071120 10 169 0.0 0.0 0.00 0.00 0.00 91 1013.5
20260502070131 10 169 0.0 0.0 0.00 0.00 0.00 90 1013.7
20260502065140 10 169 0.0 0.0 0.00 0.00 0.00 91 1013.7
20260502064117 10 169 0.0 0.0 0.00 0.00 0.00 90 1013.8
20260502063130 10 169 0.0 0.0 0.00 0.00 0.00 90 1014.0
20260502062124 10 169 0.0 0.0 0.00 0.00 0.00 90 1014.0
20260502061116 10 169 0.0 0.0 0.00 0.00 0.00 89 1013.7
20260502060130 10 169 0.0 0.0 0.00 0.00 0.00 89 1013.7
20260502055120 10 169 0.0 0.0 0.00 0.00 0.00 89 1013.7
20260502054133 10 169 0.0 0.0 0.00 0.00 0.00 89 1013.7
20260502053126 10 169 0.0 0.0 0.00 0.00 0.00 89 1013.7
20260502052123 10 169 0.0 0.0 0.00 0.00 0.00 89 1013.9
20260502051117 10 169 0.0 0.0 0.00 0.00 0.00 89 1014.0
20260502050129 10 169 0.0 0.0 0.00 0.00 0.00 89 1014.1
20260502045122 10 169 0.0 0.0 0.00 0.00 0.00 88 1014.2
20260502044115 10 169 0.0 0.0 0.00 0.00 0.00 88 1014.1
20260502043126 10 169 0.0 0.0 0.00 0.00 0.00 88 1014.2
20260502042119 10 169 0.0 0.0 0.00 0.00 0.00 87 1014.2
20260502041116 10 169 0.0 0.0 0.00 0.00 0.00 87 1014.2
20260502040127 11 169 0.0 0.0 0.00 0.00 0.00 86 1014.4
20260502035115 11 169 0.0 0.0 0.00 0.00 0.00 86 1014.4
20260502034131 11 169 0.0 0.0 0.00 0.00 0.00 86 1014.4
20260502033123 11 169 0.0 0.0 0.00 0.00 0.00 86 1014.5
20260502032116 11 169 0.0 0.0 0.00 0.00 0.00 86 1014.5
20260502031129 11 169 0.0 0.0 0.00 0.00 0.00 85 1014.7
20260502030124 11 169 0.0 0.0 0.00 0.00 0.00 85 1014.5
20260502025134 11 169 0.0 0.0 0.00 0.00 0.00 85 1014.5
20260502024125 11 169 0.0 0.0 0.00 0.00 0.00 84 1014.5
20260502023123 11 169 0.0 0.0 0.00 0.00 0.00 84 1014.6